When you browse on this site, cookies collect data to enhance your experience and personalize the content and advertising you see.
Visit our Privacy Policy to learn more. By continuing to use the site, you agree to this use of cookies and data.
  • In United Kingdom
  • List of Countries
  • For 7 days
  • Water Temperature
  • Satellite Maps
  • Weather Map
  • Weather Widgets
  • user-avatar
    Login

    Hourly Weather Shirin

    Today, 21 January, Monday

    Time Temperature Precipitation Wind Pressure Humidity
    00:00 -6°C° 0 mm 8 mps 694 mmHg 86%
    01:00 -6°C° 0 mm 8 mps 695 mmHg 86%
    02:00 -6°C° 0 mm 7 mps 695 mmHg 87%
    03:00 -6°C° 0 mm 7 mps 696 mmHg 88%
    04:00 -5°C° 0 mm 6 mps 696 mmHg 81%
    05:00 -5°C° 0 mm 5 mps 696 mmHg 81%
    06:00 -5°C° 0 mm 5 mps 697 mmHg 82%
    07:00 -4°C° 0 mm 4 mps 697 mmHg 83%
    08:00 -4°C° 0 mm 4 mps 697 mmHg 77%
    09:00 -3°C° 0 mm 4 mps 697 mmHg 71%
    10:00 -1°C° 0 mm 3 mps 698 mmHg 65%
    11:00 0°C° 0 mm 3 mps 697 mmHg 62%
    12:00 0°C° 0 mm 3 mps 697 mmHg 60%
    13:00 +2°C° 0 mm 2 mps 697 mmHg 57%
    14:00 +2°C° 0 mm 2 mps 697 mmHg 59%
    15:00 +2°C° 0 mm 1 mps 696 mmHg 60%
    16:00 +2°C° 0 mm 1 mps 696 mmHg 61%
    17:00 +2°C° 0 mm 1 mps 696 mmHg 66%
    18:00 -1°C° 0 mm 2 mps 696 mmHg 71%
    19:00 -2°C° 0 mm 2 mps 696 mmHg 76%
    20:00 -2°C° 0 mm 2 mps 695 mmHg 79%
    21:00 -2°C° 0 mm 3 mps 695 mmHg 82%
    22:00 -2°C° 0 mm 3 mps 695 mmHg 85%
    23:00 -2°C° 0 mm 3 mps 694 mmHg 86%

    Tomorrow, 22 January, Tuesday

    Time Temperature Precipitation Wind Pressure Humidity
    00:00 -2°C° 0 mm 3 mps 694 mmHg 87%
    01:00 -2°C° 0 mm 3 mps 694 mmHg 88%
    02:00 -2°C° 0 mm 3 mps 693 mmHg 88%
    03:00 -2°C° 0 mm 3 mps 693 mmHg 88%
    04:00 -3°C° 0 mm 4 mps 693 mmHg 88%
    05:00 -2°C° 0 mm 3 mps 693 mmHg 88%
    06:00 -2°C° 0 mm 3 mps 693 mmHg 89%
    07:00 -4°C° 0 mm 3 mps 693 mmHg 89%
    08:00 -2°C° 0 mm 3 mps 693 mmHg 83%
    09:00 -1°C° 0 mm 3 mps 693 mmHg 78%
    10:00 -1°C° 0 mm 4 mps 692 mmHg 72%
    11:00 0°C° 0 mm 3 mps 692 mmHg 69%
    12:00 +1°C° 0 mm 3 mps 692 mmHg 66%
    13:00 +1°C° 0 mm 3 mps 691 mmHg 63%
    14:00 +1°C° 0 mm 3 mps 691 mmHg 65%
    15:00 +1°C° 0 mm 3 mps 691 mmHg 67%
    16:00 0°C° 0 mm 3 mps 691 mmHg 69%
    17:00 0°C° 0 mm 3 mps 691 mmHg 72%
    18:00 -1°C° 0 mm 2 mps 691 mmHg 76%
    19:00 -2°C° 0 mm 2 mps 692 mmHg 79%
    20:00 -2°C° 0 mm 2 mps 692 mmHg 79%
    21:00 0°C° 0 mm 1 mps 692 mmHg 79%
    22:00 0°C° 0 mm 1 mps 692 mmHg 79%
    23:00 0°C° 0 mm 1 mps 692 mmHg 78%

    Day after tomorrow, 23 January, Wednesday

    Time Temperature Precipitation Wind Pressure Humidity
    00:00 0°C° 0 mm 1 mps 692 mmHg 78%
    01:00 0°C° 0 mm 1 mps 692 mmHg 78%
    02:00 0°C° 0 mm 1 mps 692 mmHg 77%
    03:00 0°C° 0 mm 1 mps 692 mmHg 76%
    04:00 -1°C° 0 mm 0 mps 692 mmHg 76%
    05:00 -1°C° 0 mm 0 mps 692 mmHg 74%
    06:00 -1°C° 0 mm 0 mps 692 mmHg 72%
    07:00 -1°C° 0 mm 0 mps 693 mmHg 71%
    08:00 +1°C° 0 mm 1 mps 693 mmHg 63%
    09:00 +3°C° 0 mm 1 mps 693 mmHg 55%
    10:00 +4°C° 0 mm 1 mps 694 mmHg 47%
    11:00 +4°C° 0 mm 2 mps 694 mmHg 44%
    12:00 +4°C° 0 mm 2 mps 693 mmHg 40%
    13:00 +4°C° 0 mm 3 mps 693 mmHg 37%
    14:00 +5°C° 0 mm 2 mps 693 mmHg 40%
    15:00 +4°C° 0 mm 2 mps 693 mmHg 43%
    16:00 +5°C° 0 mm 1 mps 694 mmHg 45%
    17:00 +4°C° 0 mm 1 mps 694 mmHg 48%
    18:00 +3°C° 0 mm 1 mps 694 mmHg 50%
    19:00 +2°C° 0 mm 1 mps 694 mmHg 52%
    20:00 +2°C° 0 mm 1 mps 695 mmHg 52%
    21:00 +2°C° 0 mm 1 mps 695 mmHg 51%
    22:00 +2°C° 0 mm 1 mps 695 mmHg 51%
    23:00 +2°C° 0 mm 1 mps 695 mmHg 52%

    24 January, Thursday

    Time Temperature Precipitation Wind Pressure Humidity
    00:00 +1°C° 0 mm 1 mps 695 mmHg 53%
    01:00 +1°C° 0 mm 1 mps 695 mmHg 54%
    02:00 +1°C° 0 mm 1 mps 696 mmHg 55%
    03:00 +1°C° 0 mm 1 mps 696 mmHg 56%
    04:00 +1°C° 0 mm 1 mps 696 mmHg 57%
    05:00 +1°C° 0 mm 1 mps 696 mmHg 58%
    06:00 +1°C° 0 mm 1 mps 697 mmHg 58%
    07:00 +1°C° 0 mm 1 mps 697 mmHg 59%
    08:00 +2°C° 0 mm 1 mps 697 mmHg 52%
    09:00 +3°C° 0 mm 2 mps 698 mmHg 46%
    10:00 +5°C° 0 mm 2 mps 698 mmHg 40%
    11:00 +5°C° 0 mm 2 mps 698 mmHg 38%
    12:00 +5°C° 0 mm 3 mps 698 mmHg 37%
    13:00 +5°C° 0 mm 3 mps 697 mmHg 35%
    14:00 +6°C° 0 mm 2 mps 697 mmHg 38%
    15:00 +5°C° 0 mm 2 mps 697 mmHg 41%
    16:00 +6°C° 0 mm 1 mps 697 mmHg 43%
    17:00 +5°C° 0 mm 1 mps 698 mmHg 46%
    18:00 +4°C° 0 mm 1 mps 698 mmHg 48%
    19:00 +3°C° 0 mm 1 mps 698 mmHg 51%
    20:00 +3°C° 0 mm 1 mps 698 mmHg 52%
    21:00 +3°C° 0 mm 1 mps 698 mmHg 52%
    22:00 +2°C° 0 mm 1 mps 698 mmHg 53%
    23:00 +2°C° 0 mm 1 mps 698 mmHg 54%

    25 January, Friday

    Time Temperature Precipitation Wind Pressure Humidity
    00:00 +2°C° 0 mm 1 mps 698 mmHg 54%
    01:00 +2°C° 0 mm 1 mps 698 mmHg 55%
    02:00 +2°C° 0 mm 1 mps 698 mmHg 55%
    03:00 +2°C° 0 mm 1 mps 697 mmHg 54%
    04:00 +1°C° 0 mm 2 mps 697 mmHg 54%
    05:00 -1°C° 0 mm 2 mps 697 mmHg 54%
    06:00 -1°C° 0 mm 2 mps 697 mmHg 54%
    07:00 -1°C° 0 mm 2 mps 697 mmHg 54%
    08:00 +1°C° 0 mm 3 mps 697 mmHg 46%
    09:00 +2°C° 0 mm 3 mps 697 mmHg 38%
    10:00 +4°C° 0 mm 4 mps 697 mmHg 30%
    11:00 +5°C° 0 mm 4 mps 696 mmHg 29%
    12:00 +5°C° 0 mm 4 mps 696 mmHg 27%
    13:00 +6°C° 0 mm 5 mps 696 mmHg 26%
    14:00 +5°C° 0 mm 4 mps 695 mmHg 28%
    15:00 +5°C° 0 mm 4 mps 695 mmHg 31%
    16:00 +4°C° 0 mm 4 mps 695 mmHg 34%
    17:00 +3°C° 0 mm 4 mps 695 mmHg 37%
    18:00 +1°C° 0 mm 4 mps 695 mmHg 41%
    19:00 0°C° 0 mm 4 mps 694 mmHg 44%
    20:00 0°C° 0 mm 3 mps 694 mmHg 45%
    21:00 0°C° 0 mm 3 mps 694 mmHg 45%
    22:00 0°C° 0 mm 3 mps 694 mmHg 46%
    23:00 0°C° 0 mm 3 mps 694 mmHg 44%

    26 January, Saturday

    Time Temperature Precipitation Wind Pressure Humidity
    00:00 -1°C° 0 mm 2 mps 694 mmHg 43%
    01:00 -1°C° 0 mm 2 mps 693 mmHg 41%
    02:00 -1°C° 0 mm 2 mps 693 mmHg 40%
    03:00 -1°C° 0 mm 2 mps 693 mmHg 39%
    04:00 -1°C° 0 mm 2 mps 693 mmHg 38%
    05:00 -1°C° 0 mm 2 mps 693 mmHg 37%
    06:00 -1°C° 0 mm 2 mps 693 mmHg 35%
    07:00 -1°C° 0 mm 2 mps 693 mmHg 33%
    08:00 +3°C° 0 mm 2 mps 693 mmHg 28%
    09:00 +5°C° 0 mm 2 mps 693 mmHg 24%
    10:00 +7°C° 0 mm 2 mps 694 mmHg 19%
    11:00 +8°C° 0 mm 2 mps 693 mmHg 17%
    12:00 +9°C° 0 mm 2 mps 693 mmHg 16%
    13:00 +11°C° 0 mm 1 mps 693 mmHg 14%
    14:00 +9°C° 0 mm 2 mps 693 mmHg 17%
    15:00 +8°C° 0 mm 2 mps 692 mmHg 20%
    16:00 +7°C° 0 mm 2 mps 692 mmHg 22%
    17:00 +6°C° 0 mm 2 mps 692 mmHg 23%
    18:00 +5°C° 0 mm 2 mps 693 mmHg 24%
    19:00 +4°C° 0 mm 2 mps 693 mmHg 25%
    20:00 +4°C° 0 mm 2 mps 693 mmHg 24%
    21:00 +4°C° 0 mm 2 mps 693 mmHg 23%
    22:00 +4°C° 0 mm 2 mps 693 mmHg 22%
    23:00 +4°C° 0 mm 2 mps 693 mmHg 23%
    Show more